Johnson County (6A4)
Johnson County, TN
Field Elevation: 2240
Lat: 36°25.07N  Long: 81°49.51W
CTAF/Unicom Freq: 122.7000
   
    
Weather Advisories
10/31/2014 22:41 Z
Altimeter 29.85" Hg
Wind 230° @ 0 KT
Gusts --
Visibility 7 SM
Ceiling OVC021
Temperature 7° C (45° F)
Dewpoint 5° C (41° F)
Relative Humidity 91%
Density Altitude --
Condensation Altitude --
  Wind and Runways
Indicated Runway = 24
History
 
 
More Info
All DigiWx sites map
 
Johnson County Airport FBO
 
Airport IQ 5010
(M01) General Dewitt Spain Airport
(3M3) Collegedale Muni
 
about DigiWx
 
FAA Disclaimer: The data displayed is for advisory purposes only and is not to be used for flight planning or operations. For official data, please call (not available) to hear the current automated AWOS voice message.
  METAR 6A4 312241Z AUTO 23000KT 7SM OVC021 07/05 A2985